Regional Weather Roundup
Issued by NWS Goodland, KS

Home | Current Version | Previous Version | Graphics & Text | Print | Product List | Glossary On
Versions: 1 2 3 4 5 6 7 8 9 10 11 12 13 14 15 16 17 18 19 20 21 22 23 24 25 26 27 28 29 30 31 32 33 34 35 36 37 38 39 40 41 42 43 44 45 46 47 48 49 50
374
ASUS43 KGLD 241459
RWRGLD

GOODLAND FORECAST AREA HOURLY WEATHER ROUNDUP
NATIONAL WEATHER SERVICE GOODLAND KS
900 AM MDT TUE MAY 24 2016

...OFFICIAL OBSERVATIONS...

CITY           SKY/WX    TMP DP  RH WIND       PRES   REMARKS
GOODLAND KS    PTSUNNY   60  55  83 E16G22    29.94R
HILL CITY KS   CLOUDY    63  58  83 SE15      29.93R
IMPERIAL NEB   SUNNY     64  50  60 CALM      29.94R
MCCOOK NEB     SUNNY     67  58  72 SE13      29.92R
AKRON CO       MOSUNNY   59  46  62 SE16      29.96F
BURLINGTON CO  CLOUDY    62  53  72 E18       29.95R
LIMON CO       SUNNY     61  46  57 E21G29    29.98R
$$

...UNOFFICIAL OBSERVATIONS...

CITY           SKY/WX    TMP DP  RH WIND       PRES   REMARKS
COLBY KS       PTSUNNY   64  61  88 E14       29.95S
GOVE KS          N/A     62  32  32 MISG        N/A
LENORA KS        N/A     62  32  32 MISG        N/A
NORTON KS      SUNNY     64  55  72 SE14      29.93S
SHARON SPRINGS   N/A     60  56  87 E18G26      N/A
TRIBUNE KS     CLOUDY    61  59  94 NE20      29.93R
KIT CARSON CO    N/A     59  52  77 MISG        N/A
YUMA CO          N/A     61  51  70 CALM        N/A
$$




USA.gov is the U.S. government's official web portal to all federal, state and local government web resources and services.